| time (UTC) | temp F | wind direction | speed MPH | gust MPH | rain 1hr in | rain 24hr in | rain mn in | humidity % | barometer mb |
| 20260507175529 | 74 | 324 | 0.0 | 7.0 | 0.00 | 0.20 | 0.00 | 63 | 1015.6 |
| 20260507172307 | 71 | 198 | 0.0 | 3.0 | 0.00 | 0.24 | 0.00 | 63 | 1016.3 |
| 20260507171233 | 70 | 252 | 1.0 | 4.0 | 0.00 | 0.24 | 0.00 | 63 | 1016.1 |
| 20260507170213 | 70 | 5 | 0.0 | 5.0 | 0.00 | 0.24 | 0.00 | 62 | 1016.1 |
| 20260507165228 | 69 | 271 | 1.0 | 7.0 | 0.00 | 0.24 | 0.00 | 61 | 1016.1 |
| 20260507164209 | 69 | 329 | 1.0 | 7.0 | 0.00 | 0.24 | 0.00 | 60 | 1016.1 |
| 20260507163207 | 68 | 350 | 1.0 | 5.0 | 0.00 | 0.24 | 0.00 | 58 | 1015.8 |
| 20260507162211 | 68 | 350 | 1.0 | 7.0 | 0.00 | 0.24 | 0.00 | 57 | 1015.7 |
| 20260507161143 | 67 | 338 | 1.0 | 11.0 | 0.00 | 0.24 | 0.00 | 54 | 1015.7 |
| 20260507160117 | 67 | 325 | 1.0 | 11.0 | 0.00 | 0.24 | 0.00 | 50 | 1015.4 |
| 20260507155133 | 66 | 24 | 1.0 | 8.0 | 0.00 | 0.24 | 0.00 | 49 | 1015.4 |
| 20260507154119 | 66 | 340 | 1.0 | 7.0 | 0.00 | 0.24 | 0.00 | 48 | 1015.7 |
| 20260507151917 | 65 | 187 | 0.0 | 5.0 | 0.00 | 0.24 | 0.00 | 39 | 1015.9 |
| 20260507150847 | 64 | 76 | 1.0 | 7.0 | 0.00 | 0.24 | 0.00 | 37 | 1015.7 |
| 20260507145829 | 64 | 254 | 2.0 | 7.0 | 0.00 | 0.24 | 0.00 | 37 | 1015.4 |
| 20260507144802 | 63 | 200 | 1.0 | 9.0 | 0.00 | 0.24 | 0.00 | 35 | 1015.6 |
| 20260507143822 | 63 | 214 | 1.0 | 9.0 | 0.00 | 0.24 | 0.00 | 34 | 1015.8 |
| 20260507142833 | 63 | 76 | 1.0 | 7.0 | 0.00 | 0.24 | 0.00 | 32 | 1015.8 |
| 20260507141830 | 63 | 221 | 1.0 | 11.0 | 0.00 | 0.24 | 0.00 | 30 | 1015.7 |
| 20260507140825 | 63 | 202 | 1.0 | 11.0 | 0.00 | 0.24 | 0.00 | 29 | 1015.7 |
| 20260507135834 | 63 | 0 | 1.0 | 11.0 | 0.00 | 0.24 | 0.00 | 27 | 1015.8 |
| 20260507134823 | 63 | 317 | 1.0 | 7.0 | 0.00 | 0.24 | 0.00 | 26 | 1015.9 |
| 20260507133816 | 63 | 231 | 0.0 | 7.0 | 0.00 | 0.24 | 0.00 | 26 | 1015.9 |
| 20260507132830 | 63 | 113 | 0.0 | 7.0 | 0.00 | 0.24 | 0.00 | 26 | 1015.8 |
| 20260507130643 | 63 | 92 | 0.0 | 7.0 | 0.00 | 0.24 | 0.00 | 27 | 1015.9 |
| 20260507125704 | 63 | 65 | 0.0 | 3.0 | 0.00 | 0.24 | 0.00 | 26 | 1016.2 |
| 20260507124654 | 63 | 156 | 0.0 | 3.0 | 0.00 | 0.24 | 0.00 | 24 | 1016.0 |
| 20260507123655 | 63 | 277 | 0.0 | 3.0 | 0.00 | 0.24 | 0.00 | 23 | 1015.8 |
| 20260507122711 | 64 | 281 | 0.0 | 6.0 | 0.00 | 0.24 | 0.00 | 23 | 1015.2 |
| 20260507121654 | 64 | 185 | 0.0 | 6.0 | 0.00 | 0.24 | 0.00 | 22 | 1014.6 |
| 20260507120626 | 64 | 24 | 0.0 | 4.0 | 0.00 | 0.24 | 0.00 | 22 | 1014.6 |
| 20260507115634 | 64 | 338 | 0.0 | 4.0 | 0.00 | 0.24 | 0.00 | 23 | 1014.4 |
| 20260507113556 | 64 | 120 | 0.0 | 9.0 | 0.00 | 0.24 | 0.00 | 24 | 1014.7 |
| 20260507112528 | 64 | 216 | 0.0 | 4.0 | 0.00 | 0.24 | 0.00 | 24 | 1013.9 |
| 20260507111456 | 65 | 42 | 0.0 | 5.0 | 0.00 | 0.24 | 0.00 | 23 | 1014.0 |
| 20260507110503 | 65 | 162 | 0.0 | 5.0 | 0.00 | 0.24 | 0.00 | 23 | 1014.0 |
| 20260507104427 | 65 | 302 | 0.0 | 3.0 | 0.00 | 0.24 | 0.00 | 24 | 1013.5 |
| 20260507103428 | 65 | 350 | 0.0 | 3.0 | 0.00 | 0.24 | 0.00 | 24 | 1013.5 |
| 20260507101233 | 65 | 290 | 0.0 | 7.0 | 0.00 | 0.24 | 0.00 | 24 | 1013.2 |
| 20260507100201 | 66 | 350 | 0.0 | 3.0 | 0.00 | 0.24 | 0.00 | 24 | 1013.1 |
| 20260507095145 | 66 | 328 | 0.0 | 7.0 | 0.00 | 0.24 | 0.00 | 23 | 1012.8 |
| 20260507094136 | 66 | 324 | 0.0 | 5.0 | 0.00 | 0.24 | 0.00 | 22 | 1012.7 |
| 20260507093146 | 66 | 82 | 0.0 | 3.0 | 0.00 | 0.24 | 0.00 | 22 | 1012.5 |
| 20260507085841 | 66 | 355 | 0.0 | 3.0 | 0.00 | 0.24 | 0.00 | 24 | 1012.7 |
| 20260507084902 | 66 | 319 | 0.0 | 5.0 | 0.00 | 0.24 | 0.00 | 25 | 1012.6 |
| 20260507083916 | 66 | 319 | 1.0 | 5.0 | 0.00 | 0.24 | 0.00 | 26 | 1012.3 |
| 20260507080604 | 67 | 252 | 1.0 | 5.0 | 0.00 | 0.24 | 0.00 | 28 | 1013.0 |
| 20260507075550 | 67 | 350 | 0.0 | 3.0 | 0.00 | 0.24 | 0.00 | 29 | 1012.8 |
| 20260507074549 | 67 | 325 | 0.0 | 5.0 | 0.00 | 0.24 | 0.00 | 29 | 1012.8 |
| 20260507073527 | 67 | 28 | 1.0 | 5.0 | 0.00 | 0.24 | 0.00 | 30 | 1013.0 |
| 20260507071436 | 67 | 336 | 0.0 | 4.0 | 0.00 | 0.24 | 0.00 | 32 | 1012.9 |
| 20260507064125 | 67 | 329 | 0.0 | 3.0 | 0.00 | 0.24 | 0.00 | 33 | 1013.2 |
| 20260507062024 | 67 | 193 | 0.0 | 4.0 | 0.00 | 0.24 | 0.00 | 35 | 1013.2 |
| 20260507061018 | 67 | 226 | 0.0 | 3.0 | 0.00 | 0.24 | 0.00 | 35 | 1013.0 |
| 20260507060025 | 67 | 9 | 0.0 | 2.0 | 0.00 | 0.24 | 0.00 | 36 | 1012.7 |
| 20260507054957 | 68 | 228 | 0.0 | 4.0 | 0.00 | 0.24 | 0.00 | 36 | 1013.1 |
| 20260507053954 | 68 | 281 | 0.0 | 4.0 | 0.00 | 0.24 | 0.00 | 37 | 1013.0 |
| 20260507052930 | 68 | 146 | 0.0 | 6.0 | 0.00 | 0.24 | 0.00 | 37 | 1012.8 |
| 20260507051858 | 68 | 226 | 0.0 | 6.0 | 0.00 | 0.24 | 0.00 | 37 | 1012.8 |
| 20260507050916 | 68 | 257 | 0.0 | 4.0 | 0.00 | 0.24 | 0.00 | 38 | 1012.9 |
| 20260507045932 | 68 | 236 | 0.0 | 3.0 | 0.00 | 0.24 | 0.24 | 39 | 1012.8 |
| 20260507044910 | 68 | 271 | 1.0 | 7.0 | 0.00 | 0.24 | 0.24 | 40 | 1012.9 |
| 20260507043935 | 68 | 221 | 0.0 | 7.0 | 0.00 | 0.24 | 0.24 | 41 | 1012.7 |
| 20260507034420 | 70 | 170 | 1.0 | 5.0 | 0.00 | 0.24 | 0.24 | 46 | 1012.7 |
| 20260507033443 | 70 | 198 | 0.0 | 5.0 | 0.00 | 0.24 | 0.24 | 44 | 1012.4 |
| 20260507031320 | 71 | 172 | 0.0 | 9.0 | 0.00 | 0.24 | 0.24 | 44 | 1012.1 |
| 20260507030307 | 71 | 322 | 1.0 | 9.0 | 0.00 | 0.24 | 0.24 | 45 | 1011.8 |
| 20260507025328 | 71 | 204 | 1.0 | 5.0 | 0.00 | 0.24 | 0.24 | 45 | 1011.5 |
| 20260507024331 | 72 | 200 | 0.0 | 5.0 | 0.00 | 0.24 | 0.24 | 45 | 1011.2 |
| 20260507023341 | 72 | 323 | 1.0 | 3.0 | 0.00 | 0.24 | 0.24 | 44 | 1011.0 |
| 20260507022339 | 72 | 202 | 0.0 | 3.0 | 0.00 | 0.24 | 0.24 | 43 | 1010.9 |
| 20260507021313 | 72 | 213 | 0.0 | 7.0 | 0.00 | 0.24 | 0.24 | 42 | 1010.7 |
| 20260507020330 | 73 | 346 | 0.0 | 7.0 | 0.00 | 0.24 | 0.24 | 42 | 1010.3 |
| 20260507014231 | 73 | 238 | 0.0 | 4.0 | 0.00 | 0.24 | 0.24 | 43 | 1010.1 |
| 20260507013249 | 74 | 327 | 0.0 | 4.0 | 0.00 | 0.24 | 0.24 | 43 | 1010.0 |
| 20260507012245 | 74 | 29 | 0.0 | 2.0 | 0.00 | 0.24 | 0.24 | 42 | 1009.7 |
| 20260507010311 | 75 | 213 | 0.0 | 2.0 | 0.00 | 0.24 | 0.24 | 43 | 1009.5 |
| 20260507005310 | 75 | 226 | 0.0 | 3.0 | 0.00 | 0.24 | 0.24 | 42 | 1009.5 |
| 20260507004250 | 76 | 266 | 0.0 | 6.0 | 0.00 | 0.24 | 0.24 | 44 | 1009.3 |
| 20260507003258 | 76 | 313 | 0.0 | 4.0 | 0.00 | 0.24 | 0.24 | 45 | 1009.0 |
| 20260507002255 | 77 | 274 | 0.0 | 7.0 | 0.00 | 0.24 | 0.24 | 46 | 1008.8 |
| 20260507000223 | 79 | 210 | 0.0 | 6.0 | 0.00 | 0.24 | 0.24 | 49 | 1008.7 |
| 20260506234054 | 83 | 218 | 0.0 | 6.0 | 0.00 | 0.24 | 0.24 | 48 | 1008.3 |
| 20260506233118 | 85 | 96 | 0.0 | 0.0 | 0.00 | 0.24 | 0.24 | 32 | 1007.9 |
| 20260506232104 | 85 | 96 | 0.0 | 0.0 | 0.00 | 0.24 | 0.24 | 35 | 1007.8 |
| 20260506231103 | 85 | 96 | 0.0 | 0.0 | 0.00 | 0.24 | 0.24 | 36 | 1007.7 |
| 20260506223802 | 86 | 96 | 0.0 | 0.0 | 0.00 | 0.24 | 0.24 | 43 | 1007.6 |
| 20260506222808 | 86 | 96 | 0.0 | 0.0 | 0.00 | 0.24 | 0.24 | 44 | 1007.5 |
| 20260506221827 | 86 | 96 | 0.0 | 1.0 | 0.00 | 0.24 | 0.24 | 46 | 1007.5 |
| 20260506220831 | 86 | 96 | 0.0 | 0.0 | 0.00 | 0.24 | 0.24 | 44 | 1007.5 |
| 20260506215848 | 86 | 96 | 0.0 | 0.0 | 0.00 | 0.24 | 0.24 | 41 | 1007.4 |
| 20260506214824 | 86 | 96 | 0.0 | 0.0 | 0.00 | 0.24 | 0.24 | 40 | 1007.5 |
| 20260506213817 | 86 | 96 | 0.0 | 2.0 | 0.00 | 0.24 | 0.24 | 45 | 1007.6 |
| 20260506211723 | 85 | 96 | 0.0 | 0.0 | 0.00 | 0.24 | 0.24 | 35 | 1007.6 |
| 20260506210652 | 85 | 96 | 0.0 | 0.0 | 0.00 | 0.24 | 0.24 | 30 | 1007.6 |
| 20260506204514 | 85 | 355 | 0.0 | 1.0 | 0.00 | 0.24 | 0.24 | 26 | 1007.8 |
| 20260506203515 | 85 | 84 | 0.0 | 1.0 | 0.00 | 0.24 | 0.24 | 17 | 1008.0 |
| 20260506202455 | 84 | 84 | 0.0 | 0.0 | 0.00 | 0.24 | 0.24 | 12 | 1008.0 |
| 20260506201517 | 84 | 84 | 0.0 | 0.0 | 0.00 | 0.24 | 0.24 | 7 | 1008.1 |
| 20260506200540 | 83 | 84 | 0.0 | 0.0 | 0.00 | 0.24 | 0.24 | 7 | 1008.4 |
| 20260506195532 | 83 | 84 | 0.0 | 0.0 | 0.00 | 0.24 | 0.24 | 4 | 1008.4 |
| 20260506193436 | 82 | 84 | 0.0 | 2.0 | 0.00 | 0.24 | 0.24 | 1 | 1008.5 |
| 20260506192456 | 82 | 37 | 0.0 | 1.0 | 0.00 | 0.24 | 0.24 | 1 | 1008.4 |
| 20260506191427 | 81 | 0 | 0.0 | 0.0 | 0.00 | 0.24 | 0.24 | 1 | 1008.6 |
| 20260506190419 | 81 | 0 | 0.0 | 0.0 | 0.00 | 0.24 | 0.24 | 1 | 1008.9 |
| 20260506185412 | 80 | 0 | 0.0 | 0.0 | 0.00 | 0.24 | 0.24 | 1 | 1008.8 |
| 20260506184356 | 80 | 0 | 0.0 | 0.0 | 0.00 | 0.24 | 0.24 | 1 | 1008.8 |
| 20260506183323 | 80 | 0 | 0.0 | 0.0 | 0.00 | 0.24 | 0.24 | 1 | 1009.1 |
| 20260506182316 | 80 | 0 | 0.0 | 0.0 | 0.05 | 0.24 | 0.24 | 3 | 1009.3 |
| 20260506181324 | 81 | 0 | 0.0 | 0.0 | 0.13 | 0.24 | 0.24 | 9 | 1009.6 |